Time,TemperatureF,DewpointF,PressureIn,WindDirection,WindDirectionDegrees,WindSpeedMPH,WindSpeedGustMPH,Humidity,HourlyPrecipIn,Conditions,Clouds,dailyrainin,SolarRadiationWatts/m^2,SoftwareType,DateUTC
2013-05-22 00:02:00,57.0,48.0,-100.00,WNW,302,6.0,9.0,73,0.00,,,0.00,0.000000,,2013-05-22 05:02:00,
2013-05-22 00:12:00,57.0,48.0,-100.00,WNW,302,6.0,9.0,73,0.00,,,0.00,0.000000,,2013-05-22 05:12:00,
2013-05-22 00:21:00,57.0,48.0,-100.00,WNW,302,6.0,9.0,73,0.00,,,0.00,0.000000,,2013-05-22 05:21:00,
2013-05-22 00:42:00,57.0,51.0,-100.00,WNW,297,7.0,10.0,79,0.00,,,0.00,0.000000,,2013-05-22 05:42:00,
2013-05-22 00:52:00,57.0,51.0,-100.00,WNW,297,7.0,10.0,79,0.00,,,0.00,0.000000,,2013-05-22 05:52:00,
2013-05-22 01:01:00,57.0,51.0,-100.00,WNW,297,7.0,10.0,79,0.00,,,0.00,0.000000,,2013-05-22 06:01:00,
2013-05-22 01:12:00,57.0,51.0,-100.00,WNW,297,7.0,10.0,79,0.00,,,0.00,0.000000,,2013-05-22 06:12:00,
2013-05-22 01:21:00,57.0,51.0,-100.00,WNW,297,7.0,10.0,79,0.00,,,0.00,0.000000,,2013-05-22 06:21:00,
2013-05-22 01:42:00,57.0,52.0,-100.00,WNW,287,7.0,10.0,82,0.00,,,0.00,0.000000,,2013-05-22 06:42:00,
2013-05-22 01:52:00,57.0,52.0,-100.00,WNW,287,7.0,10.0,82,0.00,,,0.00,0.000000,,2013-05-22 06:52:00,
2013-05-22 02:01:00,57.0,52.0,-100.00,WNW,287,7.0,10.0,82,0.00,,,0.00,0.000000,,2013-05-22 07:01:00,
2013-05-22 02:11:00,57.0,52.0,-100.00,WNW,287,7.0,10.0,82,0.00,,,0.00,0.000000,,2013-05-22 07:11:00,
2013-05-22 02:21:00,57.0,52.0,-100.00,WNW,287,7.0,10.0,82,0.00,,,0.00,0.000000,,2013-05-22 07:21:00,
2013-05-22 02:42:00,57.0,50.0,-100.00,WNW,296,7.0,14.0,78,0.00,,,0.00,0.000000,,2013-05-22 07:42:00,
2013-05-22 02:53:00,57.0,50.0,-100.00,WNW,296,7.0,14.0,78,0.00,,,0.00,0.000000,,2013-05-22 07:53:00,
2013-05-22 03:02:00,57.0,50.0,-100.00,WNW,296,7.0,14.0,78,0.00,,,0.00,0.000000,,2013-05-22 08:02:00,
2013-05-22 03:11:00,57.0,50.0,-100.00,WNW,296,7.0,14.0,78,0.00,,,0.00,0.000000,,2013-05-22 08:11:00,
2013-05-22 03:22:00,57.0,50.0,-100.00,WNW,296,7.0,14.0,78,0.00,,,0.00,0.000000,,2013-05-22 08:22:00,
2013-05-22 03:42:00,56.0,51.0,-100.00,NW,315,7.0,11.0,83,0.00,,,0.00,0.000000,,2013-05-22 08:42:00,
2013-05-22 03:52:00,56.0,51.0,-100.00,NW,315,7.0,11.0,83,0.00,,,0.00,0.000000,,2013-05-22 08:52:00,
2013-05-22 04:01:00,56.0,51.0,-100.00,NW,315,7.0,11.0,83,0.00,,,0.00,0.000000,,2013-05-22 09:01:00,
2013-05-22 04:12:00,56.0,51.0,-100.00,NW,315,7.0,11.0,83,0.00,,,0.00,0.000000,,2013-05-22 09:12:00,
2013-05-22 04:21:00,56.0,51.0,-100.00,NW,315,7.0,11.0,83,0.00,,,0.00,0.000000,,2013-05-22 09:21:00,
2013-05-22 04:42:00,54.0,50.0,-100.00,WNW,298,4.0,10.0,87,0.00,,,0.00,0.000000,,2013-05-22 09:42:00,
2013-05-22 04:53:00,54.0,50.0,-100.00,WNW,298,4.0,10.0,87,0.00,,,0.00,0.000000,,2013-05-22 09:53:00,
2013-05-22 05:03:00,54.0,50.0,-100.00,WNW,298,4.0,10.0,87,0.00,,,0.00,0.000000,,2013-05-22 10:03:00,
2013-05-22 05:12:00,54.0,50.0,-100.00,WNW,298,4.0,10.0,87,0.00,,,0.00,0.000000,,2013-05-22 10:12:00,
2013-05-22 05:22:00,54.0,50.0,-100.00,WNW,298,4.0,10.0,87,0.00,,,0.00,0.000000,,2013-05-22 10:22:00,
2013-05-22 05:42:00,53.0,52.0,-100.00,West,278,7.0,9.0,96,0.00,,,0.00,1.000000,,2013-05-22 10:42:00,
2013-05-22 05:53:00,53.0,52.0,-100.00,West,278,7.0,9.0,96,0.00,,,0.00,1.000000,,2013-05-22 10:53:00,
2013-05-22 06:02:00,53.0,52.0,-100.00,West,278,7.0,9.0,96,0.00,,,0.00,1.000000,,2013-05-22 11:02:00,
2013-05-22 06:11:00,53.0,52.0,-100.00,West,278,7.0,9.0,96,0.00,,,0.00,1.000000,,2013-05-22 11:11:00,
2013-05-22 06:21:00,53.0,52.0,-100.00,West,278,7.0,9.0,96,0.00,,,0.00,1.000000,,2013-05-22 11:21:00,
2013-05-22 06:42:00,50.0,49.0,-100.00,West,278,10.0,15.0,98,0.00,,,0.00,3.000000,,2013-05-22 11:42:00,
2013-05-22 06:53:00,50.0,49.0,-100.00,West,278,10.0,15.0,98,0.00,,,0.00,3.000000,,2013-05-22 11:53:00,
2013-05-22 07:02:00,50.0,49.0,-100.00,West,278,10.0,15.0,98,0.00,,,0.00,3.000000,,2013-05-22 12:02:00,
2013-05-22 07:12:00,50.0,49.0,-100.00,West,278,10.0,15.0,98,0.00,,,0.00,3.000000,,2013-05-22 12:12:00,
2013-05-22 07:22:00,50.0,49.0,-100.00,West,278,10.0,15.0,98,0.00,,,0.00,3.000000,,2013-05-22 12:22:00,
2013-05-22 07:42:00,52.0,49.0,-100.00,West,279,10.0,16.0,89,0.00,,,0.00,86.000000,,2013-05-22 12:42:00,
2013-05-22 07:52:00,52.0,49.0,-100.00,West,279,10.0,16.0,89,0.00,,,0.00,86.000000,,2013-05-22 12:52:00,
2013-05-22 08:01:00,52.0,49.0,-100.00,West,279,10.0,16.0,89,0.00,,,0.00,86.000000,,2013-05-22 13:01:00,
2013-05-22 08:11:00,52.0,49.0,-100.00,West,279,10.0,16.0,89,0.00,,,0.00,86.000000,,2013-05-22 13:11:00,
2013-05-22 08:22:00,52.0,49.0,-100.00,West,279,10.0,16.0,89,0.00,,,0.00,86.000000,,2013-05-22 13:22:00,
2013-05-22 08:42:00,54.0,48.0,-100.00,WNW,289,11.0,20.0,80,0.00,,,0.00,264.000000,,2013-05-22 13:42:00,
2013-05-22 08:52:00,54.0,48.0,-100.00,WNW,289,11.0,20.0,80,0.00,,,0.00,264.000000,,2013-05-22 13:52:00,
2013-05-22 09:02:00,54.0,48.0,-100.00,WNW,289,11.0,20.0,80,0.00,,,0.00,264.000000,,2013-05-22 14:02:00,
2013-05-22 09:11:00,54.0,48.0,-100.00,WNW,289,11.0,20.0,80,0.00,,,0.00,264.000000,,2013-05-22 14:11:00,
2013-05-22 09:21:00,54.0,48.0,-100.00,WNW,289,11.0,20.0,80,0.00,,,0.00,264.000000,,2013-05-22 14:21:00,
2013-05-22 09:42:00,55.0,48.0,-100.00,WNW,294,15.0,22.0,77,0.00,,,0.00,251.000000,,2013-05-22 14:42:00,
2013-05-22 09:53:00,55.0,48.0,-100.00,WNW,294,15.0,22.0,77,0.00,,,0.00,251.000000,,2013-05-22 14:53:00,
2013-05-22 10:01:00,55.0,48.0,-100.00,WNW,294,15.0,22.0,77,0.00,,,0.00,251.000000,,2013-05-22 15:01:00,
2013-05-22 10:11:00,55.0,48.0,-100.00,WNW,294,15.0,22.0,77,0.00,,,0.00,251.000000,,2013-05-22 15:11:00,
2013-05-22 10:21:00,55.0,48.0,-100.00,WNW,294,15.0,22.0,77,0.00,,,0.00,251.000000,,2013-05-22 15:21:00,
2013-05-22 10:43:00,56.0,48.0,-100.00,WNW,292,12.0,21.0,75,0.00,,,0.00,299.000000,,2013-05-22 15:43:00,
2013-05-22 10:53:00,56.0,48.0,-100.00,WNW,292,12.0,21.0,75,0.00,,,0.00,299.000000,,2013-05-22 15:53:00,
2013-05-22 11:03:00,56.0,48.0,-100.00,WNW,292,12.0,21.0,75,0.00,,,0.00,299.000000,,2013-05-22 16:03:00,
2013-05-22 11:12:00,56.0,48.0,-100.00,WNW,292,12.0,21.0,75,0.00,,,0.00,299.000000,,2013-05-22 16:12:00,
2013-05-22 11:23:00,56.0,48.0,-100.00,WNW,292,12.0,21.0,75,0.00,,,0.00,299.000000,,2013-05-22 16:23:00,
2013-05-22 11:42:00,59.0,48.0,-100.00,West,280,12.0,21.0,68,0.00,,,0.00,474.000000,,2013-05-22 16:42:00,
2013-05-22 11:52:00,59.0,48.0,-100.00,West,280,12.0,21.0,68,0.00,,,0.00,474.000000,,2013-05-22 16:52:00,
2013-05-22 12:02:00,59.0,48.0,-100.00,West,280,12.0,21.0,68,0.00,,,0.00,474.000000,,2013-05-22 17:02:00,
2013-05-22 12:11:00,59.0,48.0,-100.00,West,280,12.0,21.0,68,0.00,,,0.00,474.000000,,2013-05-22 17:11:00,
2013-05-22 12:22:00,59.0,48.0,-100.00,West,280,12.0,21.0,68,0.00,,,0.00,474.000000,,2013-05-22 17:22:00,
2013-05-22 12:42:00,63.0,51.0,-100.00,West,277,12.0,20.0,65,0.00,,,0.00,468.000000,,2013-05-22 17:42:00,
2013-05-22 12:54:00,63.0,51.0,-100.00,West,277,12.0,20.0,65,0.00,,,0.00,468.000000,,2013-05-22 17:54:00,
2013-05-22 13:02:00,63.0,51.0,-100.00,West,277,12.0,20.0,65,0.00,,,0.00,468.000000,,2013-05-22 18:02:00,
2013-05-22 13:14:00,63.0,51.0,-100.00,West,277,12.0,20.0,65,0.00,,,0.00,468.000000,,2013-05-22 18:14:00,
2013-05-22 13:22:00,63.0,51.0,-100.00,West,277,12.0,20.0,65,0.00,,,0.00,468.000000,,2013-05-22 18:22:00,
2013-05-22 13:42:00,63.0,49.0,-100.00,West,274,12.0,20.0,61,0.00,,,0.00,410.000000,,2013-05-22 18:42:00,
2013-05-22 13:52:00,63.0,49.0,-100.00,West,274,12.0,20.0,61,0.00,,,0.00,410.000000,,2013-05-22 18:52:00,
2013-05-22 14:02:00,63.0,49.0,-100.00,West,274,12.0,20.0,61,0.00,,,0.00,410.000000,,2013-05-22 19:02:00,
2013-05-22 14:11:00,63.0,49.0,-100.00,West,274,12.0,20.0,61,0.00,,,0.00,410.000000,,2013-05-22 19:11:00,
2013-05-22 14:21:00,63.0,49.0,-100.00,West,274,12.0,20.0,61,0.00,,,0.00,410.000000,,2013-05-22 19:21:00,
2013-05-22 14:42:00,64.0,50.0,-100.00,West,269,11.0,19.0,61,0.00,,,0.00,348.000000,,2013-05-22 19:42:00,
2013-05-22 14:52:00,64.0,50.0,-100.00,West,269,11.0,19.0,61,0.00,,,0.00,348.000000,,2013-05-22 19:52:00,
2013-05-22 15:02:00,64.0,50.0,-100.00,West,269,11.0,19.0,61,0.00,,,0.00,348.000000,,2013-05-22 20:02:00,
2013-05-22 15:11:00,64.0,50.0,-100.00,West,269,11.0,19.0,61,0.00,,,0.00,348.000000,,2013-05-22 20:11:00,
2013-05-22 15:21:00,64.0,50.0,-100.00,West,269,11.0,19.0,61,0.00,,,0.00,348.000000,,2013-05-22 20:21:00,
2013-05-22 15:42:00,65.0,50.0,-100.00,West,274,12.0,17.0,58,0.00,,,0.00,418.000000,,2013-05-22 20:42:00,
2013-05-22 15:52:00,65.0,50.0,-100.00,West,274,12.0,17.0,58,0.00,,,0.00,418.000000,,2013-05-22 20:52:00,
2013-05-22 16:01:00,65.0,50.0,-100.00,West,274,12.0,17.0,58,0.00,,,0.00,418.000000,,2013-05-22 21:01:00,
2013-05-22 16:11:00,65.0,50.0,-100.00,West,274,12.0,17.0,58,0.00,,,0.00,418.000000,,2013-05-22 21:11:00,
2013-05-22 16:21:00,65.0,50.0,-100.00,West,274,12.0,17.0,58,0.00,,,0.00,418.000000,,2013-05-22 21:21:00,
2013-05-22 16:42:00,68.0,51.0,-100.00,West,270,12.0,20.0,55,0.00,,,0.00,530.000000,,2013-05-22 21:42:00,
2013-05-22 16:53:00,68.0,51.0,-100.00,West,270,12.0,20.0,55,0.00,,,0.00,530.000000,,2013-05-22 21:53:00,
2013-05-22 17:03:00,68.0,51.0,-100.00,West,270,12.0,20.0,55,0.00,,,0.00,530.000000,,2013-05-22 22:03:00,
2013-05-22 17:13:00,68.0,51.0,-100.00,West,270,12.0,20.0,55,0.00,,,0.00,530.000000,,2013-05-22 22:13:00,
2013-05-22 17:22:00,68.0,51.0,-100.00,West,270,12.0,20.0,55,0.00,,,0.00,530.000000,,2013-05-22 22:22:00,
2013-05-22 17:42:00,68.0,50.0,-100.00,West,271,10.0,21.0,53,0.00,,,0.00,517.000000,,2013-05-22 22:42:00,
2013-05-22 17:52:00,68.0,50.0,-100.00,West,271,10.0,21.0,53,0.00,,,0.00,517.000000,,2013-05-22 22:52:00,
2013-05-22 18:02:00,68.0,50.0,-100.00,West,271,10.0,21.0,53,0.00,,,0.00,517.000000,,2013-05-22 23:02:00,
2013-05-22 18:12:00,68.0,50.0,-100.00,West,271,10.0,21.0,53,0.00,,,0.00,517.000000,,2013-05-22 23:12:00,
2013-05-22 18:21:00,68.0,50.0,-100.00,West,271,10.0,21.0,53,0.00,,,0.00,517.000000,,2013-05-22 23:21:00,
2013-05-22 18:42:00,67.0,50.0,-100.00,NW,308,10.0,19.0,55,0.00,,,0.00,337.000000,,2013-05-22 23:42:00,
2013-05-22 18:53:00,67.0,50.0,-100.00,NW,308,10.0,19.0,55,0.00,,,0.00,337.000000,,2013-05-22 23:53:00,
2013-05-22 19:01:00,67.0,50.0,-100.00,NW,308,10.0,19.0,55,0.00,,,0.00,337.000000,,2013-05-23 00:01:00,
2013-05-22 19:11:00,67.0,50.0,-100.00,NW,308,10.0,19.0,55,0.00,,,0.00,337.000000,,2013-05-23 00:11:00,
2013-05-22 19:22:00,67.0,50.0,-100.00,NW,308,10.0,19.0,55,0.00,,,0.00,337.000000,,2013-05-23 00:22:00,
2013-05-22 19:42:00,67.0,52.0,-100.00,NW,316,8.0,13.0,58,0.00,,,0.00,148.000000,,2013-05-23 00:42:00,
2013-05-22 19:52:00,67.0,52.0,-100.00,NW,316,8.0,13.0,58,0.00,,,0.00,148.000000,,2013-05-23 00:52:00,
2013-05-22 20:01:00,67.0,52.0,-100.00,NW,316,8.0,13.0,58,0.00,,,0.00,148.000000,,2013-05-23 01:01:00,
2013-05-22 20:11:00,67.0,52.0,-100.00,NW,316,8.0,13.0,58,0.00,,,0.00,148.000000,,2013-05-23 01:11:00,
2013-05-22 20:21:00,67.0,52.0,-100.00,NW,316,8.0,13.0,58,0.00,,,0.00,148.000000,,2013-05-23 01:21:00,
2013-05-22 20:42:00,64.0,52.0,-100.00,NNW,331,7.0,13.0,64,0.00,,,0.00,55.000000,,2013-05-23 01:42:00,
2013-05-22 20:52:00,64.0,52.0,-100.00,NNW,331,7.0,13.0,64,0.00,,,0.00,55.000000,,2013-05-23 01:52:00,
2013-05-22 21:02:00,64.0,52.0,-100.00,NNW,331,7.0,13.0,64,0.00,,,0.00,55.000000,,2013-05-23 02:02:00,
2013-05-22 21:11:00,64.0,52.0,-100.00,NNW,331,7.0,13.0,64,0.00,,,0.00,55.000000,,2013-05-23 02:11:00,
2013-05-22 21:21:00,64.0,52.0,-100.00,NNW,331,7.0,13.0,64,0.00,,,0.00,55.000000,,2013-05-23 02:21:00,
2013-05-22 22:02:00,60.0,52.0,-100.00,North,5,5.0,11.0,74,0.00,,,0.00,3.000000,,2013-05-23 03:02:00,
2013-05-22 22:11:00,60.0,52.0,-100.00,North,5,5.0,11.0,74,0.00,,,0.00,3.000000,,2013-05-23 03:11:00,
2013-05-22 22:21:00,60.0,52.0,-100.00,North,5,5.0,11.0,74,0.00,,,0.00,3.000000,,2013-05-23 03:21:00,
2013-05-22 22:43:00,58.0,52.0,-100.00,NNW,339,3.0,11.0,79,0.00,,,0.00,0.000000,,2013-05-23 03:43:00,
2013-05-22 22:53:00,58.0,52.0,-100.00,NNW,339,3.0,11.0,79,0.00,,,0.00,0.000000,,2013-05-23 03:53:00,
2013-05-22 23:03:00,58.0,52.0,-100.00,NNW,339,3.0,11.0,79,0.00,,,0.00,0.000000,,2013-05-23 04:03:00,
2013-05-22 23:12:00,58.0,52.0,-100.00,NNW,339,3.0,11.0,79,0.00,,,0.00,0.000000,,2013-05-23 04:12:00,
2013-05-22 23:22:00,58.0,52.0,-100.00,NNW,339,3.0,11.0,79,0.00,,,0.00,0.000000,,2013-05-23 04:22:00,
2013-05-22 23:43:00,56.0,51.0,-100.00,NW,326,3.0,4.0,84,0.00,,,0.00,0.000000,,2013-05-23 04:43:00,
2013-05-22 23:52:00,56.0,51.0,-100.00,NW,326,3.0,4.0,84,0.00,,,0.00,0.000000,,2013-05-23 04:52:00,